User: anonymous   Login
Location: Unspecified
(0.0000°N, 0.0000°E)
Time: 13:46:13
(UTC+00:00)
Language:

SOHLA-1 (MAIDO-1) - Orbit

View from above orbital plane
View from above orbital plane
View from above satellite
View from above satellite

Ground track
Ground track

The orbit data is extracted from the following two-line orbital elements,

1 33496U 09002E   17114.96515172 +.00000159 +00000-0 +33897-4 0  9995
2 33496 098.3054 263.6140 0006619 163.2511 309.1527 14.71680584442415
Epoch (UTC): 24 April 2017 23:09:49
Eccentricity: 0.0006619
inclination: 98.3054°
perigee height: 651 km
apogee height: 660 km
right ascension of ascending node: 263.6140°
argument of perigee: 163.2511°
revolutions per day: 14.71680584
mean anomaly at epoch: 309.1527°
orbit number at epoch: 44241

The dashed part of the orbit path shows where the satellite is in the earth's shadow,  

DLR